sat.trackr.live / text

‹ back to catalog

STARLINK-31540

NORAD 59542 · 2024-074J

PAYLOAD ACTIVE UNKNOWN

§ Identity

Operator
Country
US
Launch date
2024-04-18
Launch site
AFETR
Launch vehicle
Mass (kg)
RCS (m²)

Purposes: comms

External: N2YO · Heavens-Above · Gunter

§ Orbital elements

Epoch: 2026-09-21T10:28:18.958656Z

Period
94.27 min
Inclination
43.0037°
Eccentricity
0.0001140
Mean motion
15.27579447 rev/d
Perigee alt
482.3 km
Apogee alt
483.8 km
Semi-major
6,861.2 km
B*
2.5801e-5
RAAN
317.8424°
Arg perigee
269.6671°
Mean anomaly
90.4050°
Rev number
13,595

§ Raw data

STARLINK-315401 59542U 24074J   26264.43633054  .00000448  00000+0  25801-4 0  99952 59542  43.0037 317.8424 0001140 269.6671  90.4050 15.27579447135958

JSON: /api/v1/satellites/59542 · /tle

For live sub-satellite position, see the globe view (requires WebGL).

§ Visibility from observer

Set your observer location to see the next 7 days of passes ≥ 10°. The values pass through the URL so the page stays shareable.

No JS? Fill the form by hand. The geolocation button needs JavaScript.